• în România
  • Lista ţărilor
  • Pe 7 zile
  • Temperatura apei
  • Hartă satelitară
  • Meteo pe hartă
  • Widget-uri
  • user-avatar
    Intrare

    Meteo pe oră la Dzhyakovo

    Astăzi, 20 Octombrie, Vineri

    Timp Temperatura Precipitaţii Vânt Presiune Umiditate
    00:00 +14°C° 0 mm 0 m/s 755 mmHg 57%
    01:00 +14°C° 0 mm 0 m/s 755 mmHg 60%
    02:00 +13°C° 0 mm 0 m/s 755 mmHg 61%
    03:00 +13°C° 0 mm 0 m/s 755 mmHg 63%
    04:00 +13°C° 0 mm 0 m/s 755 mmHg 64%
    05:00 +13°C° 0 mm 0 m/s 755 mmHg 63%
    06:00 +14°C° 0 mm 1 m/s 755 mmHg 63%
    07:00 +14°C° 0 mm 1 m/s 755 mmHg 63%
    08:00 +16°C° 0 mm 1 m/s 755 mmHg 55%
    09:00 +20°C° 0 mm 1 m/s 756 mmHg 48%
    10:00 +22°C° 0 mm 1 m/s 756 mmHg 40%
    11:00 +23°C° 0 mm 1 m/s 756 mmHg 37%
    12:00 +25°C° 0 mm 1 m/s 755 mmHg 33%
    13:00 +26°C° 0 mm 1 m/s 755 mmHg 30%
    14:00 +25°C° 0 mm 1 m/s 755 mmHg 32%
    15:00 +25°C° 0 mm 1 m/s 755 mmHg 34%
    16:00 +24°C° 0 mm 1 m/s 754 mmHg 37%
    17:00 +23°C° 0 mm 1 m/s 755 mmHg 40%
    18:00 +21°C° 0 mm 1 m/s 755 mmHg 44%
    19:00 +19°C° 0 mm 1 m/s 755 mmHg 47%
    20:00 +19°C° 0 mm 1 m/s 755 mmHg 50%
    21:00 +19°C° 0 mm 1 m/s 756 mmHg 52%
    22:00 +18°C° 0 mm 1 m/s 756 mmHg 55%
    23:00 +17°C° 0 mm 2 m/s 756 mmHg 59%

    Mâine, 21 Octombrie, Sâmbătă

    Timp Temperatura Precipitaţii Vânt Presiune Umiditate
    00:00 +16°C° 0 mm 2 m/s 756 mmHg 63%
    01:00 +15°C° 0 mm 2 m/s 756 mmHg 67%
    02:00 +15°C° 0 mm 2 m/s 756 mmHg 71%
    03:00 +14°C° 0 mm 2 m/s 756 mmHg 75%
    04:00 +14°C° 0 mm 2 m/s 756 mmHg 78%
    05:00 +14°C° 0 mm 2 m/s 756 mmHg 79%
    06:00 +14°C° 0 mm 2 m/s 756 mmHg 80%
    07:00 +13°C° 0 mm 2 m/s 756 mmHg 81%
    08:00 +16°C° 0 mm 2 m/s 756 mmHg 71%
    09:00 +18°C° 0 mm 2 m/s 756 mmHg 62%
    10:00 +20°C° 0 mm 3 m/s 757 mmHg 52%
    11:00 +21°C° 0 mm 3 m/s 756 mmHg 48%
    12:00 +22°C° 0 mm 3 m/s 756 mmHg 43%
    13:00 +24°C° 0 mm 3 m/s 755 mmHg 38%
    14:00 +24°C° 0 mm 2 m/s 755 mmHg 40%
    15:00 +23°C° 0 mm 2 m/s 755 mmHg 42%
    16:00 +23°C° 0 mm 2 m/s 755 mmHg 44%
    17:00 +21°C° 0 mm 1 m/s 755 mmHg 49%
    18:00 +20°C° 0 mm 1 m/s 755 mmHg 53%
    19:00 +18°C° 0 mm 1 m/s 755 mmHg 58%
    20:00 +18°C° 0 mm 1 m/s 755 mmHg 60%
    21:00 +16°C° 0 mm 1 m/s 755 mmHg 61%
    22:00 +16°C° 0 mm 1 m/s 755 mmHg 63%
    23:00 +16°C° 0 mm 1 m/s 755 mmHg 65%

    Poimâine, 22 Octombrie, Duminică

    Timp Temperatura Precipitaţii Vânt Presiune Umiditate
    00:00 +15°C° 0 mm 1 m/s 755 mmHg 67%
    01:00 +15°C° 0 mm 1 m/s 755 mmHg 68%
    02:00 +15°C° 0 mm 1 m/s 754 mmHg 70%
    03:00 +14°C° 0 mm 1 m/s 754 mmHg 71%
    04:00 +14°C° 0 mm 1 m/s 754 mmHg 72%
    05:00 +14°C° 0 mm 1 m/s 754 mmHg 72%
    06:00 +14°C° 0 mm 1 m/s 754 mmHg 72%
    07:00 +14°C° 0 mm 1 m/s 754 mmHg 72%
    08:00 +16°C° 0 mm 1 m/s 754 mmHg 65%
    09:00 +19°C° 0 mm 1 m/s 754 mmHg 59%
    10:00 +21°C° 0 mm 1 m/s 754 mmHg 52%
    11:00 +22°C° 0 mm 1 m/s 753 mmHg 50%
    12:00 +23°C° 0 mm 1 m/s 752 mmHg 48%
    13:00 +24°C° 0 mm 1 m/s 752 mmHg 45%
    14:00 +23°C° 0,1 mm 1 m/s 751 mmHg 48%
    15:00 +22°C° 0,1 mm 1 m/s 751 mmHg 51%
    16:00 +22°C° 0,1 mm 1 m/s 750 mmHg 54%
    17:00 +21°C° 0,9 mm 1 m/s 750 mmHg 60%
    18:00 +20°C° 0,9 mm 1 m/s 750 mmHg 66%
    19:00 +17°C° 0,9 mm 2 m/s 750 mmHg 72%
    20:00 +17°C° 0,8 mm 3 m/s 750 mmHg 76%
    21:00 +16°C° 0,8 mm 3 m/s 750 mmHg 80%
    22:00 +14°C° 0,8 mm 4 m/s 750 mmHg 83%
    23:00 +13°C° 0,6 mm 5 m/s 750 mmHg 83%

    23 Octombrie, Luni

    Timp Temperatura Precipitaţii Vânt Presiune Umiditate
    00:00 +13°C° 0,6 mm 5 m/s 750 mmHg 82%
    01:00 +11°C° 0,6 mm 6 m/s 750 mmHg 81%
    02:00 +12°C° 0,2 mm 5 m/s 750 mmHg 80%
    03:00 +10°C° 0,2 mm 5 m/s 750 mmHg 79%
    04:00 +10°C° 0,2 mm 5 m/s 750 mmHg 78%
    05:00 +10°C° 0,4 mm 5 m/s 750 mmHg 76%
    06:00 +10°C° 0,4 mm 5 m/s 750 mmHg 74%
    07:00 +9°C° 0,4 mm 5 m/s 750 mmHg 72%
    08:00 +10°C° 0 mm 6 m/s 750 mmHg 68%
    09:00 +11°C° 0 mm 7 m/s 750 mmHg 64%
    10:00 +12°C° 0 mm 7 m/s 751 mmHg 59%
    11:00 +12°C° 0,1 mm 7 m/s 751 mmHg 59%
    12:00 +12°C° 0,1 mm 7 m/s 751 mmHg 59%
    13:00 +13°C° 0,1 mm 6 m/s 751 mmHg 58%
    14:00 +13°C° 0 mm 6 m/s 751 mmHg 58%
    15:00 +13°C° 0 mm 6 m/s 751 mmHg 58%
    16:00 +11°C° 0 mm 6 m/s 751 mmHg 57%
    17:00 +12°C° 0 mm 5 m/s 751 mmHg 59%
    18:00 +12°C° 0 mm 5 m/s 751 mmHg 60%
    19:00 +11°C° 0 mm 4 m/s 752 mmHg 61%
    20:00 +11°C° 0 mm 4 m/s 752 mmHg 63%
    21:00 +10°C° 0 mm 5 m/s 752 mmHg 64%
    22:00 +10°C° 0 mm 5 m/s 752 mmHg 65%
    23:00 +9°C° 0 mm 5 m/s 752 mmHg 68%

    24 Octombrie, Marţi

    Timp Temperatura Precipitaţii Vânt Presiune Umiditate
    00:00 +9°C° 0 mm 5 m/s 752 mmHg 71%
    01:00 +9°C° 0 mm 5 m/s 752 mmHg 73%
    02:00 +8°C° 0 mm 5 m/s 752 mmHg 75%
    03:00 +8°C° 0 mm 4 m/s 752 mmHg 77%
    04:00 +8°C° 0 mm 4 m/s 752 mmHg 79%
    05:00 +8°C° 0 mm 4 m/s 753 mmHg 79%
    06:00 +8°C° 0 mm 4 m/s 753 mmHg 79%
    07:00 +8°C° 0 mm 4 m/s 753 mmHg 79%
    08:00 +9°C° 0 mm 5 m/s 754 mmHg 71%
    09:00 +11°C° 0 mm 6 m/s 754 mmHg 63%
    10:00 +12°C° 0 mm 7 m/s 754 mmHg 56%
    11:00 +14°C° 0 mm 7 m/s 754 mmHg 52%
    12:00 +15°C° 0 mm 7 m/s 754 mmHg 48%
    13:00 +16°C° 0 mm 7 m/s 754 mmHg 44%
    14:00 +16°C° 0 mm 7 m/s 754 mmHg 45%
    15:00 +15°C° 0 mm 6 m/s 754 mmHg 47%
    16:00 +15°C° 0 mm 6 m/s 754 mmHg 49%
    17:00 +14°C° 0 mm 6 m/s 755 mmHg 52%
    18:00 +13°C° 0 mm 5 m/s 755 mmHg 56%
    19:00 +12°C° 0 mm 5 m/s 756 mmHg 60%
    20:00 +10°C° 0 mm 5 m/s 756 mmHg 62%
    21:00 +10°C° 0 mm 5 m/s 757 mmHg 64%
    22:00 +10°C° 0 mm 5 m/s 757 mmHg 67%
    23:00 +9°C° 0 mm 5 m/s 758 mmHg 69%

    25 Octombrie, Miercuri

    Timp Temperatura Precipitaţii Vânt Presiune Umiditate
    00:00 +10°C° 0 mm 4 m/s 758 mmHg 70%
    01:00 +10°C° 0 mm 4 m/s 758 mmHg 72%
    02:00 +8°C° 0 mm 4 m/s 758 mmHg 75%
    03:00 +8°C° 0 mm 4 m/s 759 mmHg 77%
    04:00 +7°C° 0 mm 4 m/s 759 mmHg 80%
    05:00 +7°C° 0 mm 4 m/s 759 mmHg 80%
    06:00 +7°C° 0 mm 4 m/s 760 mmHg 81%
    07:00 +8°C° 0 mm 3 m/s 760 mmHg 82%
    08:00 +10°C° 0 mm 4 m/s 761 mmHg 74%
    09:00 +11°C° 0 mm 4 m/s 761 mmHg 67%
    10:00 +13°C° 0 mm 4 m/s 761 mmHg 59%
    11:00 +14°C° 0 mm 4 m/s 761 mmHg 56%
    12:00 +15°C° 0 mm 4 m/s 761 mmHg 52%
    13:00 +17°C° 0 mm 4 m/s 761 mmHg 49%
    14:00 +17°C° 0 mm 4 m/s 761 mmHg 50%
    15:00 +16°C° 0 mm 3 m/s 761 mmHg 52%
    16:00 +16°C° 0 mm 3 m/s 761 mmHg 53%
    17:00 +15°C° 0 mm 2 m/s 762 mmHg 57%
    18:00 +14°C° 0 mm 2 m/s 762 mmHg 61%
    19:00 +12°C° 0 mm 2 m/s 762 mmHg 65%
    20:00 +12°C° 0 mm 2 m/s 763 mmHg 67%
    21:00 +12°C° 0 mm 2 m/s 763 mmHg 69%
    22:00 +10°C° 0 mm 2 m/s 763 mmHg 70%
    23:00 +11°C° 0 mm 1 m/s 764 mmHg 72%
    Arată mai mult